This is the latest recevied weather packets stored in our database for station/object F1AGU-13. If no packets are shown the sender has not sent any weather packets the latest 10 day(s).
| Time | Temp. | Humidity | Pressure | Rain* | Wind** | Luminosity | Snow |
|---|---|---|---|---|---|---|---|
| 1777859117 | 8.89° C | 91% | 1014.9 hPa | 0 mm | - | - | - |
| 1777858517 | 8.89° C | 91% | 1014.7 hPa | 0 mm | - | - | - |
| 1777857917 | 8.33° C | 92% | 1014.7 hPa | 0 mm | - | - | - |
| 1777857317 | 8.33° C | 92% | 1014.7 hPa | 0 mm | - | - | - |
| 1777856717 | 8.33° C | 92% | 1014.9 hPa | 0 mm | - | - | - |
| 1777856117 | 8.33° C | 93% | 1015.1 hPa | 0 mm | - | - | - |
| 1777855517 | 8.33° C | 91% | 1015.3 hPa | 0.25 mm | - | - | - |
| 1777854917 | 8.33° C | 91% | 1015.6 hPa | 0.25 mm | - | - | - |
| 1777854317 | 8.89° C | 90% | 1015.8 hPa | 0.25 mm | - | - | - |
| 1777853717 | 8.89° C | 89% | 1016.2 hPa | 0.51 mm | - | - | - |
| 1777853117 | 8.89° C | 87% | 1016 hPa | 0.51 mm | - | - | - |
| 1777852517 | 9.44° C | 86% | 1016.7 hPa | 0.51 mm | - | - | - |
| 1777851917 | 9.44° C | 84% | 1016.6 hPa | 0.25 mm | - | - | - |
| 1777851317 | 8.89° C | 84% | 1016.8 hPa | 0.25 mm | - | - | - |
| 1777850716 | 8.89° C | 84% | 1016.8 hPa | 0.25 mm | - | - | - |
| 1777850117 | 8.89° C | 83% | 1016.8 hPa | 0 mm | - | - | - |
| 1777849516 | 8.89° C | 83% | 1016.9 hPa | 0 mm | - | - | - |
| 1777848916 | 8.89° C | 82% | 1016.8 hPa | 0 mm | - | - | - |
| 1777848316 | 8.33° C | 82% | 1016.7 hPa | 0 mm | - | - | - |
| 1777847716 | 8.33° C | 83% | 1016.7 hPa | 0 mm | - | - | - |
| 1777847117 | 8.33° C | 83% | 1016.6 hPa | 0 mm | - | - | - |
| 1777846516 | 7.78° C | 83% | 1016.6 hPa | 0 mm | - | - | - |
| 1777845916 | 7.78° C | 84% | 1016.3 hPa | 0 mm | - | - | - |
| 1777845317 | 7.78° C | 84% | 1016.3 hPa | 0 mm | - | - | - |
| 1777844717 | 7.78° C | 85% | 1016.3 hPa | 0 mm | - | - | - |
* Rain latest hour (hover to see other rain measurements)
** Current wind speed in m/s (hover to see current wind gust speed)